This is the latest recevied weather packets stored in our database for station/object K5BOU. If no packets are shown the sender has not sent any weather packets the latest 10 day(s).
| Time | Temp. | Humidity | Pressure | Rain* | Wind** | Luminosity | Snow |
|---|---|---|---|---|---|---|---|
| 1777732837 | 17.78° C | 83% | 1018.4 hPa | 0 mm | - | 564 W/m² | - |
| 1777732534 | 17.78° C | 83% | 1018.4 hPa | 0 mm | - | 552 W/m² | - |
| 1777732232 | 16.67° C | 84% | 1018.5 hPa | 0 mm | - | 495 W/m² | - |
| 1777731929 | 16.67° C | 85% | 1018.3 hPa | 0 mm | - | 462 W/m² | - |
| 1777731626 | 16.67° C | 85% | 1018.4 hPa | 0 mm | - | 410 W/m² | - |
| 1777731323 | 17.22° C | 86% | 1018.3 hPa | 0 mm | - | 387 W/m² | - |
| 1777731021 | 16.67° C | 88% | 1018.3 hPa | 0 mm | - | 362 W/m² | - |
| 1777730719 | 16.11° C | 88% | 1018 hPa | 0 mm | - | 342 W/m² | - |
| 1777730415 | 15.56° C | 89% | 1018.3 hPa | 0 mm | - | 309 W/m² | - |
| 1777730110 | 15.56° C | 90% | 1018.3 hPa | 0 mm | - | 294 W/m² | - |
| 1777729808 | 15° C | 91% | 1018 hPa | 0 mm | - | 279 W/m² | - |
| 1777729505 | 15° C | 91% | 1018.1 hPa | 0 mm | - | 269 W/m² | - |
| 1777729201 | 15° C | 92% | 1018.1 hPa | 0 mm | - | 243 W/m² | - |
| 1777728898 | 15° C | 93% | 1017.8 hPa | 0 mm | - | 224 W/m² | - |
| 1777728595 | 14.44° C | 94% | 1017.6 hPa | 0 mm | - | 211 W/m² | - |
| 1777728292 | 14.44° C | 94% | 1017.7 hPa | 0 mm | - | 197 W/m² | - |
| 1777727989 | 13.89° C | 95% | 1017.8 hPa | 0 mm | - | 181 W/m² | - |
| 1777727686 | 13.89° C | 97% | 1017.9 hPa | 0 mm | - | 165 W/m² | - |
| 1777727383 | 13.89° C | 98% | 1017.5 hPa | 0 mm | - | 143 W/m² | - |
| 1777727080 | 13.33° C | 99% | 1017.2 hPa | 0 mm | - | 124 W/m² | - |
| 1777726778 | 13.33° C | 99% | 1017.2 hPa | 0 mm | - | 110 W/m² | - |
| 1777726474 | 12.78° C | 99% | 1017.4 hPa | 0 mm | - | 91 W/m² | - |
| 1777726171 | 12.78° C | 99% | 1017.1 hPa | 0 mm | - | 63 W/m² | - |
| 1777725868 | 12.22° C | 99% | 1017 hPa | 0 mm | - | 53 W/m² | - |
| 1777725566 | 12.22° C | 99% | 1017.1 hPa | 0 mm | - | 33 W/m² | - |
* Rain latest hour (hover to see other rain measurements)
** Current wind speed in m/s (hover to see current wind gust speed)